Weather History for Spokane Fairchild, WA

Change the Weather History Date:

Tuesday, July 2, 2013

  Actual Average Record
Temperature  
Mean Temperature 80 °F -  
Max Temperature 95 °F 75 °F 95 °F (2013)
Min Temperature 64 °F 51 °F 44 °F (1999)
Cooling Degree Days 14    
Growing Degree Days 30 (Base 50)    
Moisture  
Dew Point 61 °F    
Average Humidity 52    
Maximum Humidity 84    
Minimum Humidity 26    
Precipitation  
Precipitation 0.00 in - - ()
Sea Level Pressure  
Sea Level Pressure 29.96 in    
Wind  
Wind Speed 5 mph (SSW)    
Max Wind Speed 10 mph    
Max Gust Speed -    
Visibility 10 miles    
Events Rain    
Averages and records for this station are not official NWS values.
T = Trace of Precipitation, MM = Missing Value Source: NWS Daily Summary

Daily Weather History Graph

Daily Weather History Graph

Search for Another Location

Airport:

Trip Planner

Search our weather history database for the weather conditions in past years. The results will help you decide how hot, cold, wet, or windy it might be!

Date:

Astronomy

Jul. 02, 2013 Rise Set
Actual Time 4:57 AM PDT 8:51 PM PDT
Civil Twilight 4:17 AM PDT 9:31 PM PDT
Nautical Twilight 3:22 AM PDT 10:26 PM PDT
Astronomical Twilight 1:56 AM PDT 11:50 PM PDT
Moon 1:15 AM PDT (7/2) 3:59 PM PDT (7/2)
Length of Visible Light 17h 14m
Length of Day
15h 53m
Waning Crescent, 25% of the Moon is Illuminated
Jul 2
Waning Crescent
Jul 8
New
Jul 15
First Quarter
Jul 22
Full
Jul 29
Last Quarter

Hourly Weather History & Observations

Time (PDT) Temp. Heat Index Dew Point Humidity Pressure Visibility Wind Dir Wind Speed Gust Speed Precip Events Conditions
12:58 AM 76.6 °F - 60.1 °F 56% 29.93 in 10.0 mi Variable 2.3 mph - N/A   Clear
1:58 AM 64.2 °F - 59.2 °F 84% 29.94 in 10.0 mi Variable 1.2 mph - N/A   Clear
2:58 AM 73.4 °F - 61.3 °F 66% 29.94 in 10.0 mi Calm Calm - N/A   Clear
3:58 AM 68.2 °F - 61.2 °F 78% 29.94 in 10.0 mi WNW 6.9 mph - N/A   Clear
4:58 AM 68.2 °F - 60.6 °F 77% 29.96 in 10.0 mi ENE 4.6 mph - N/A   Clear
5:58 AM 68.9 °F - 61.5 °F 77% 29.96 in 10.0 mi NNE 4.6 mph - N/A   Clear
6:56 AM 71.6 °F - 64.4 °F 78% 30.04 in 10.0 mi ENE 5.8 mph - N/A   Light Drizzle
6:58 AM 71.6 °F - 64.4 °F 78% 29.99 in 10.0 mi ENE 6.9 mph - N/A   Light Drizzle
7:05 AM 71.6 °F - 64.4 °F 78% 30.04 in 10.0 mi East 5.8 mph - N/A   Clear
7:58 AM 74.5 °F - 64.9 °F 72% 30.00 in 10.0 mi SE 3.5 mph - 0.00 in   Mostly Cloudy
8:58 AM 76.1 °F - 66.6 °F 72% 30.01 in 10.0 mi ESE 4.6 mph - N/A   Scattered Clouds
9:58 AM 81.0 °F 83.8 °F 68.0 °F 65% 30.01 in 10.0 mi Variable 3.5 mph - N/A   Clear
10:58 AM 84.0 °F 87.0 °F 68.0 °F 58% 30.01 in 10.0 mi Variable 2.3 mph - N/A   Scattered Clouds
11:58 AM 88.0 °F 89.6 °F 64.9 °F 46% 30.00 in 10.0 mi South 8.1 mph - N/A   Clear
12:58 PM 91.4 °F 92.1 °F 62.6 °F 38% 29.99 in 10.0 mi SW 8.1 mph - N/A   Clear
1:33 PM 93.2 °F 94.1 °F 62.6 °F 36% 30.04 in 10.0 mi SSW 9.2 mph - N/A Rain Light Rain
1:37 PM 93.2 °F 94.1 °F 62.6 °F 36% 30.04 in 10.0 mi SSW 6.9 mph - N/A   Clear
1:58 PM 93.2 °F 92.9 °F 59.7 °F 33% 29.99 in 10.0 mi South 6.9 mph - 0.00 in   Clear
2:58 PM 94.8 °F 94.2 °F 58.8 °F 30% 29.96 in 10.0 mi SW 5.8 mph - N/A   Clear
3:58 PM 95.7 °F 95.1 °F 58.8 °F 29% 29.95 in 10.0 mi South 6.9 mph - N/A   Clear
4:58 PM 95.7 °F 94.7 °F 58.1 °F 28% 29.93 in 10.0 mi SW 9.2 mph - N/A   Clear
5:11 PM 95.0 °F 93.7 °F 57.2 °F 28% 29.97 in 10.0 mi SSW 9.2 mph - N/A   Light Drizzle
5:15 PM 95.0 °F 93.0 °F 55.4 °F 26% 29.97 in 10.0 mi SSW 10.4 mph - N/A   Clear
5:58 PM 94.3 °F 94.9 °F 61.7 °F 34% 29.91 in 10.0 mi SW 9.2 mph - 0.00 in   Clear
6:58 PM 92.1 °F 91.7 °F 59.7 °F 34% 29.89 in 10.0 mi SSW 6.9 mph - N/A   Clear
7:58 PM 86.9 °F 86.3 °F 59.4 °F 39% 29.89 in 10.0 mi SW 8.1 mph - N/A   Clear
8:31 PM 82.4 °F 82.0 °F 57.2 °F 42% 29.94 in 10.0 mi SSW 6.9 mph - N/A   Light Drizzle
8:37 PM 82.4 °F 82.5 °F 59.0 °F 45% 29.94 in 10.0 mi SSW 8.1 mph - N/A   Clear
8:58 PM 81.0 °F 81.1 °F 57.9 °F 45% 29.89 in 10.0 mi SW 5.8 mph - 0.00 in   Clear
9:58 PM 79.3 °F - 57.9 °F 48% 29.89 in 10.0 mi SSW 8.1 mph - N/A   Clear
10:58 PM 77.0 °F - 58.5 °F 53% 29.90 in 10.0 mi WSW 10.4 mph - N/A   Clear
11:58 PM 73.0 °F - 59.0 °F 61% 29.89 in 10.0 mi WSW 6.9 mph - N/A   Clear